#datint,netname,site,siteID,timestamp,IntT,BattV,AirT2,AirT,AirT_Avg,AirT_Max,AirT_Min,RH_Avg,RH_Max,RH_Min,EA_Avg,Td_Avg,Td_Max,Td_Min,WindS_Smp,WindS_Avg,WindD_Avg,WindD_SD,WindS_Max,ETo,ETr,SoilT4,SoilT8,SoilVWC8,SolarW_Avg,wetstate_Avg,wetT_Avg,Precip_accum,Precip_WPG,Precip_TB
15min,AgWx,beryljct,423,01MAY2019:00:00:00,42.3,12.92,38.8,38.5,38.6,38.7,38.5,94,94,93,0.738,36.9,37.0,36.8,9.93,10.1,60,12,15.2,-0.00004,-0.00004,51.2,52.3,10,0,0,39.4,14.11,0.00,0.00
15min,AgWx,beryljct,423,01MAY2019:00:15:00,42.0,12.91,38.7,38.6,38.6,38.7,38.5,93,93,92,0.733,36.6,36.8,36.4,9.27,9.8,54,11,14.8,-0.00004,-0.00003,51.1,52.3,10,0,0,39.6,14.11,0.00,0.00
15min,AgWx,beryljct,423,01MAY2019:00:30:00,41.7,12.89,38.4,38.2,38.4,38.6,38.2,93,94,93,0.731,36.6,36.8,36.4,7.037,9.0,46,11,12.2,-0.00005,-0.00005,51.0,52.3,10,0,0,39.5,14.11,0.00,0.00
15min,AgWx,beryljct,423,01MAY2019:00:45:00,41.4,12.88,38.2,38.0,38.1,38.3,38.0,94,95,94,0.732,36.5,36.7,36.3,10.65,7.9,48,12,11.6,-0.00006,-0.00006,50.9,52.2,10,0,0,39.2,14.11,0.00,0.00
15min,AgWx,beryljct,423,01MAY2019:01:00:00,41.2,12.89,38.1,37.8,37.9,38.1,37.7,94,94,94,0.726,36.3,36.6,36.1,8.33,10.0,45,11,15.6,-0.00004,-0.00004,50.8,52.2,10,0,0,38.8,14.11,0.00,0.00
15min,AgWx,beryljct,423,01MAY2019:01:15:00,40.8,12.87,37.2,37.0,37.4,37.9,37.0,93,95,92,0.689,35.6,36.5,35.0,13.24,10.9,43,12,15.7,-0.00003,-0.00003,50.7,52.2,10,0,0,38.2,14.11,0.00,0.00
15min,AgWx,beryljct,423,01MAY2019:01:30:00,40.4,12.85,36.8,36.8,37.0,37.1,36.8,93,94,92,0.693,35.2,35.5,35.0,14.12,10.6,52,12,14.5,-0.00004,-0.00003,50.6,52.1,10,0,0,37.7,14.11,0.00,0.00
15min,AgWx,beryljct,423,01MAY2019:01:45:00,39.9,12.85,36.6,36.5,36.6,36.8,36.5,94,94,93,0.683,34.9,35.2,34.8,7.41,9.4,56,11,14.6,-0.00004,-0.00004,50.5,52.1,10,0,0,37.4,14.11,0.00,0.00
15min,AgWx,beryljct,423,01MAY2019:02:00:00,39.7,12.84,36.4,36.3,36.3,36.5,36.2,93,94,92,0.667,34.5,34.8,34.0,7.497,8.3,55,12,11.4,-0.00005,-0.00005,50.4,52.1,10,0,0,37.2,14.11,0.00,0.00
15min,AgWx,beryljct,423,01MAY2019:02:15:00,39.5,12.82,36.5,36.2,36.2,36.4,36.2,91,92,90,0.653,34.0,34.2,33.7,10.02,7.5,49,11,11.2,-0.00005,-0.00005,50.3,52.0,10,0,0,37.4,14.11,0.00,0.00
15min,AgWx,beryljct,423,01MAY2019:02:30:00,39.4,12.81,36.4,36.2,36.2,36.3,36.2,90,91,89,0.645,33.5,33.8,33.3,8.22,8.0,55,11,11.3,-0.00003,-0.00003,50.2,52.0,10,0,0,37.3,14.11,0.00,0.00
15min,AgWx,beryljct,423,01MAY2019:02:45:00,39.2,12.8,36.2,36.1,36.1,36.3,36.0,89,90,88,0.635,33.1,33.5,32.9,8.81,8.9,60,12,13.6,-0.00002,-0.00001,50.1,51.9,10,0,0,36.7,14.11,0.00,0.00
15min,AgWx,beryljct,423,01MAY2019:03:00:00,38.9,12.79,35.8,35.6,35.8,36.0,35.5,88,89,88,0.621,32.7,32.9,32.4,7.848,7.5,58,12,10.1,-0.00003,-0.00003,50.0,51.9,10,0,0,35.8,14.11,0.00,0.00
15min,AgWx,beryljct,423,01MAY2019:03:15:00,38.7,12.79,35.9,35.7,35.7,35.7,35.6,89,89,88,0.630,32.6,32.9,32.4,6.752,5.5,61,11,9.8,-0.00006,-0.00006,49.9,51.9,10,0,0,36.1,14.11,0.00,0.00
15min,AgWx,beryljct,423,01MAY2019:03:30:00,38.6,12.79,35.8,35.6,35.6,35.7,35.5,90,91,89,0.639,32.9,33.2,32.7,4.691,5.1,53,10,7.7,-0.00007,-0.00008,49.8,51.8,10,0,0,36.3,14.10,0.00,0.00
15min,AgWx,beryljct,423,01MAY2019:03:45:00,38.6,12.78,35.9,35.7,35.7,35.9,35.6,91,91,90,0.645,33.3,33.4,33.1,6.664,6.1,42,10,9.2,-0.00006,-0.00006,49.7,51.8,10,0,0,36.6,14.11,0.01,0.00
15min,AgWx,beryljct,423,01MAY2019:04:00:00,38.5,12.77,35.7,35.5,35.6,35.7,35.5,90,91,89,0.631,33.0,33.3,32.7,6.489,7.3,42,12,10.5,-0.00004,-0.00004,49.6,51.8,10,0,0,36.6,14.11,0.00,0.00
15min,AgWx,beryljct,423,01MAY2019:04:15:00,38.4,12.77,35.4,35.2,35.4,35.6,35.2,89,90,88,0.608,32.4,32.9,31.9,7.497,7.8,38,10,11.0,-0.00003,-0.00002,49.6,51.7,10,0,0,36.1,14.10,0.00,0.00
15min,AgWx,beryljct,423,01MAY2019:04:30:00,38.0,12.76,35.2,34.9,34.9,35.3,34.8,90,91,87,0.616,32.2,32.4,31.9,6.401,6.0,35,11,10.5,-0.00006,-0.00006,49.5,51.7,10,0,0,35.5,14.11,0.00,0.00
15min,AgWx,beryljct,423,01MAY2019:04:45:00,37.8,12.76,35.2,35.0,34.9,35.0,34.9,90,91,90,0.626,32.3,32.6,32.2,3.573,4.4,33,11,6.5,-0.00008,-0.00009,49.4,51.6,10,0,0,35.9,14.10,0.00,0.00
15min,AgWx,beryljct,423,01MAY2019:05:00:00,37.7,12.78,34.8,34.7,34.8,35.0,34.7,91,92,91,0.623,32.6,32.8,32.4,4.669,4.9,24,9.8,7.7,-0.00008,-0.00009,49.3,51.6,10,0,0,35.7,14.10,0.00,0.00
15min,AgWx,beryljct,423,01MAY2019:05:15:00,37.3,12.78,34.5,34.2,34.4,34.7,34.2,92,92,92,0.614,32.3,32.5,32.1,4.932,4.5,30,12,6.4,-0.00009,-0.00010,49.2,51.5,10,0,0,35.2,14.10,0.00,0.00
15min,AgWx,beryljct,423,01MAY2019:05:30:00,37.0,12.78,34.7,34.5,34.4,34.7,34.2,91,92,91,0.612,32.2,32.4,32.0,5.875,4.8,24,11,7.1,-0.00008,-0.00009,49.1,51.5,10,0,0,35.8,14.10,0.00,0.00
15min,AgWx,beryljct,423,01MAY2019:05:45:00,36.7,12.78,34.0,33.9,34.2,34.6,33.9,91,92,91,0.607,32.0,32.2,31.8,5.086,5.3,27,11,7.6,-0.00007,-0.00008,49.0,51.5,10,0,0,35.2,14.10,0.00,0.00
15min,AgWx,beryljct,423,01MAY2019:06:00:00,36.2,12.77,33.6,33.5,33.8,34.0,33.5,92,92,91,0.594,31.6,31.9,31.2,4.472,4.6,24,8.7,6.8,0.00006,0.00011,48.9,51.4,10,0,0,35.2,14.10,0.00,0.00
15min,AgWx,beryljct,423,01MAY2019:06:15:00,35.6,12.75,33.1,32.8,33.1,33.5,32.8,91,92,90,0.571,30.7,31.3,30.3,5.502,4.4,29,7.7,6.4,0.00007,0.00011,48.9,51.4,10,0,0,35.4,14.10,0.00,0.00
15min,AgWx,beryljct,423,01MAY2019:06:30:00,34.9,12.75,32.1,32.2,32.5,32.8,32.2,91,92,91,0.562,30.2,30.4,29.8,3.332,4.5,42,8.9,6.4,0.00007,0.00012,48.8,51.3,10,0,0,35.3,14.10,0.00,0.00
15min,AgWx,beryljct,423,01MAY2019:06:45:00,34.2,12.74,32.9,32.3,32.0,32.3,31.8,92,93,92,0.571,30.0,30.4,29.8,2.411,2.4,32,11,4.0,0.00005,0.00008,48.7,51.3,10,4,0,35.8,14.10,0.00,0.00
15min,AgWx,beryljct,423,01MAY2019:07:00:00,33.8,12.77,33.1,32.6,32.3,32.6,32.1,92,93,92,0.578,30.4,30.6,30.1,2.083,1.8,23,8.4,2.6,0.00012,0.00015,48.6,51.2,10,24,0,36.2,14.10,0.00,0.00
15min,AgWx,beryljct,423,01MAY2019:07:15:00,33.9,12.82,33.3,33.1,32.9,33.2,32.5,92,93,92,0.588,30.9,31.2,30.6,3.683,3.0,18,9.1,4.6,0.00028,0.00033,48.5,51.2,10,64,0,38.7,14.10,0.00,0.00
15min,AgWx,beryljct,423,01MAY2019:07:30:00,34.5,12.83,33.5,33.3,33.3,33.5,33.0,92,93,92,0.592,31.3,31.7,31.0,3.595,4.2,34,11,6.9,0.00035,0.00041,48.4,51.1,10,85,0,39.8,14.10,0.00,0.00
15min,AgWx,beryljct,423,01MAY2019:07:45:00,34.7,12.86,33.2,32.9,33.2,33.5,32.9,92,93,91,0.580,31.1,31.5,30.7,3.836,4.1,35,16,6.2,0.00027,0.00032,48.3,51.1,10,56,0,36.0,14.10,0.00,0.00
15min,AgWx,beryljct,423,01MAY2019:08:00:00,34.8,12.87,34.1,34.2,33.4,34.2,32.9,91,92,90,0.606,31.1,31.8,30.7,4.231,4.8,21,13,7.1,0.00052,0.00060,48.2,51.0,10,139,0,38.7,14.10,0.00,0.00
15min,AgWx,beryljct,423,01MAY2019:08:15:00,35.7,12.9,35.6,35.5,34.5,35.5,34.0,89,91,86,0.611,31.5,32.0,31.1,7.212,6.2,26,11,8.8,0.00083,0.00096,48.1,51.0,10,243,0,47.0,14.10,0.00,0.00
15min,AgWx,beryljct,423,01MAY2019:08:30:00,37.3,13.01,37.2,37.1,35.9,37.2,35.1,85,87,84,0.627,31.8,32.9,31.0,4.472,6.5,32,13,9.2,0.00119,0.00136,48.0,50.9,10,345,0,52.4,14.10,0.00,0.00
15min,AgWx,beryljct,423,01MAY2019:08:45:00,39.0,13.16,37.8,38.2,37.1,38.2,36.4,80,84,77,0.613,31.6,32.6,30.8,9.6,7.2,35,14,10.5,0.00137,0.00160,48.0,50.9,10,377,0,53.4,14.10,0.00,0.00
15min,AgWx,beryljct,423,01MAY2019:09:00:00,40.8,13.56,39.1,38.9,38.6,39.6,37.8,74,78,69,0.558,31.1,32.2,29.8,9.29,7.9,33,12,12.2,0.00181,0.00213,47.9,50.8,10,488,0,57.4,14.10,0.00,0.00
15min,AgWx,beryljct,423,01MAY2019:09:15:00,42.2,14.14,39.6,39.3,39.2,39.9,38.5,69,74,65,0.540,29.9,31.7,28.8,9.12,8.8,28,12,12.6,0.00183,0.00222,47.8,50.8,10,463,0,55.2,14.10,0.00,0.00
15min,AgWx,beryljct,423,01MAY2019:09:30:00,43.1,14.09,39.6,39.2,39.7,40.4,39.1,66,70,62,0.533,29.4,31.1,27.3,6.971,9.2,26,14,13.5,0.00196,0.00240,47.7,50.7,10,477,0,55.0,14.09,0.00,0.00
15min,AgWx,beryljct,423,01MAY2019:09:45:00,43.4,14.59,40.3,40.0,39.6,40.3,39.0,65,68,61,0.521,28.6,30.0,26.8,10.83,9.1,36,13,13.3,0.00180,0.00224,47.7,50.7,9,417,0,51.6,14.09,0.00,0.00
15min,AgWx,beryljct,423,01MAY2019:10:00:00,44.0,14.6,41.0,40.9,40.7,41.5,40.0,61,66,59,0.508,28.4,30.7,26.8,7.914,9.1,34,15,13.0,0.00221,0.00272,47.7,50.6,10,514,0,55.6,14.09,0.00,0.00
15min,AgWx,beryljct,423,01MAY2019:10:15:00,45.2,14.55,41.2,42.2,41.9,42.5,41.0,61,65,57,0.525,29.5,31.2,27.6,14.07,9.0,39,14,14.1,0.00282,0.00337,47.6,50.6,10,682,0,62.0,14.09,0.00,0.00
15min,AgWx,beryljct,423,01MAY2019:10:30:00,46.4,14.55,43.6,43.0,42.7,43.6,41.7,57,60,55,0.528,28.7,30.6,27.1,7.848,10.0,39,13,14.3,0.00303,0.00367,47.6,50.5,10,721,0,62.3,14.08,0.00,0.00
15min,AgWx,beryljct,423,01MAY2019:10:45:00,47.2,14.51,42.8,43.3,42.9,43.4,42.4,52,56,50,0.495,26.6,28.5,25.0,13.22,12.3,42,16,18.2,0.00318,0.00396,47.6,50.5,10,755,0,61.4,14.09,0.00,0.00
15min,AgWx,beryljct,423,01MAY2019:11:00:00,47.6,14.53,43.8,43.4,43.1,43.7,42.6,51,53,49,0.481,26.1,27.7,24.8,9.73,12.4,49,13,17.0,0.00335,0.00417,47.7,50.4,10,794,0,60.9,14.08,0.00,0.00
15min,AgWx,beryljct,423,01MAY2019:11:15:00,48.0,14.5,43.1,43.8,43.6,44.2,42.8,51,54,49,0.503,26.9,28.5,25.1,15.37,12.1,46,13,16.3,0.00351,0.00433,47.7,50.4,10,831,0,62.4,14.08,0.00,0.00
15min,AgWx,beryljct,423,01MAY2019:11:30:00,48.4,14.53,43.3,44.6,44.1,44.9,43.4,51,53,49,0.509,27.3,28.7,25.9,16.53,11.1,55,13,16.5,0.00369,0.00449,47.8,50.3,10,865,0,63.1,14.08,0.00,0.00
15min,AgWx,beryljct,423,01MAY2019:11:45:00,48.9,14.48,44.7,45.0,44.7,45.3,44.1,51,54,48,0.498,27.4,29.4,26.0,14.95,11.4,49,18,22.3,0.00384,0.00468,47.9,50.3,9,895,0,63.9,14.08,0.00,0.00
15min,AgWx,beryljct,423,01MAY2019:12:00:00,49.3,14.06,46.1,45.4,45.2,46.3,44.3,50,53,47,0.510,27.6,29.9,26.1,12.69,10.9,39,11,15.8,0.00401,0.00486,48.0,50.3,10,922,0,64.6,14.08,0.00,0.00
15min,AgWx,beryljct,423,01MAY2019:12:15:00,49.8,14.04,45.9,45.5,45.7,46.5,45.1,49,52,46,0.490,27.7,30.0,25.9,10.85,10.8,57,18,16.8,0.00415,0.00502,48.1,50.2,10,947,0,65.4,14.07,0.00,0.00
15min,AgWx,beryljct,423,01MAY2019:12:30:00,50.2,14.09,47.2,46.7,45.9,46.9,45.2,48,51,43,0.525,27.2,29.6,24.5,5.042,10.0,41,14,15.6,0.00430,0.00516,48.3,50.2,10,969,0,65.6,14.07,0.00,0.00
15min,AgWx,beryljct,423,01MAY2019:12:45:00,50.7,14.03,47.8,47.1,46.5,47.4,45.7,49,53,45,0.554,28.3,30.7,25.7,10.37,10.1,50,20,17.9,0.00438,0.00525,48.4,50.2,10,983,0,66.2,14.07,0.00,0.00
15min,AgWx,beryljct,423,01MAY2019:13:00:00,51.1,14,47.0,46.7,47.0,47.8,46.3,48,52,46,0.504,28.5,30.9,26.6,6.862,10.1,64,16,15.0,0.00447,0.00536,48.6,50.2,10,996,0,66.3,14.07,0.00,0.00
15min,AgWx,beryljct,423,01MAY2019:13:15:00,51.5,14.01,45.7,46.8,47.1,47.9,46.6,47,52,43,0.483,27.8,31.1,25.5,12.71,10.0,56,16,15.4,0.00454,0.00544,48.8,50.2,10,1003,0,66.5,14.07,0.00,0.00
15min,AgWx,beryljct,423,01MAY2019:13:30:00,51.6,13.99,48.6,48.3,47.4,48.4,46.5,46,49,42,0.557,27.6,30.0,24.6,9.12,9.5,52,18,15.9,0.00461,0.00552,49.1,50.2,10,1008,0,66.2,14.06,0.00,0.00
15min,AgWx,beryljct,423,01MAY2019:13:45:00,51.9,14.11,47.0,47.9,47.7,48.6,46.9,46,53,43,0.536,28.1,32.4,25.8,8.31,9.5,52,15,15.2,0.00464,0.00554,49.3,50.2,10,1007,0,66.2,14.06,0.00,0.00
15min,AgWx,beryljct,423,01MAY2019:14:00:00,52.2,14,47.4,48.1,47.9,48.9,47.3,45,48,41,0.487,27.4,30.0,25.0,12.12,9.5,47,22,14.6,0.00467,0.00559,49.6,50.3,10,1003,0,66.2,14.06,0.00,0.00
15min,AgWx,beryljct,423,01MAY2019:14:15:00,52.6,13.98,49.8,48.9,47.9,48.9,47.0,42,47,35,0.554,25.7,29.6,21.0,7.76,8.2,31,18,13.6,0.00472,0.00563,50.0,50.3,10,995,0,66.1,14.06,0.00,0.00
15min,AgWx,beryljct,423,01MAY2019:14:30:00,53.2,13.99,48.4,48.1,48.5,49.2,47.7,43,49,39,0.470,26.9,31.0,24.1,8.31,7.8,40,20,16.2,0.00472,0.00559,50.3,50.4,10,982,0,67.1,14.06,0.00,0.00
15min,AgWx,beryljct,423,01MAY2019:14:45:00,53.6,13.98,49.3,49.7,49.0,50.1,47.5,43,48,36,0.545,27.5,31.0,21.7,4.845,8.7,45,27,13.4,0.00465,0.00557,50.7,50.4,10,966,0,65.5,14.06,0.00,0.00
15min,AgWx,beryljct,423,01MAY2019:15:00:00,54.3,13.95,47.6,49.4,49.5,50.2,48.5,43,48,38,0.500,27.7,30.8,24.0,2.894,7.2,46,23,11.0,0.00467,0.00552,51.1,50.5,10,946,0,66.8,14.06,0.00,0.00
15min,AgWx,beryljct,423,01MAY2019:15:15:00,54.9,13.91,50.0,49.8,49.5,50.6,48.8,41,48,37,0.497,27.0,31.7,23.7,9.36,7.7,49,30,13.8,0.00403,0.00488,51.5,50.6,10,804,0,66.0,14.06,0.00,0.00
15min,AgWx,beryljct,423,01MAY2019:15:30:00,55.2,13.87,50.8,50.1,49.9,50.8,49.0,41,46,36,0.488,27.4,30.4,23.5,9.51,7.0,46,25,11.3,0.00445,0.00530,52.0,50.7,10,888,0,65.2,14.06,0.00,0.00
15min,AgWx,beryljct,423,01MAY2019:15:45:00,55.8,13.89,52.1,51.5,50.6,51.5,49.9,43,46,39,0.591,28.9,31.2,25.9,5.305,7.7,39,18,13.3,0.00433,0.00521,52.4,50.8,10,857,0,64.4,14.05,0.00,0.00
15min,AgWx,beryljct,423,01MAY2019:16:00:00,56.3,13.85,51.0,50.5,50.4,51.6,49.5,41,47,35,0.518,27.6,32.0,23.1,4.823,7.6,42,21,12.8,0.00409,0.00496,52.9,51.0,10,800,0,63.6,14.06,0.00,0.00
15min,AgWx,beryljct,423,01MAY2019:16:15:00,56.8,13.83,49.8,50.7,50.5,51.3,49.8,40,45,36,0.524,27.3,30.3,24.1,11.09,7.1,46,21,13.0,0.00392,0.00475,53.3,51.1,10,764,0,63.3,14.05,0.00,0.00
15min,AgWx,beryljct,423,01MAY2019:16:30:00,57.3,13.82,50.1,50.3,50.7,51.8,49.3,39,43,34,0.470,26.3,29.3,22.1,11.07,7.3,21,36,12.2,0.00390,0.00477,53.8,51.2,10,751,0,62.7,14.06,0.00,0.00
15min,AgWx,beryljct,423,01MAY2019:16:45:00,57.4,13.79,50.5,50.9,50.7,51.5,50.3,39,44,35,0.517,26.9,30.4,23.8,5.349,7.8,42,23,14.1,0.00371,0.00460,54.2,51.4,10,709,0,60.6,14.05,0.00,0.00
15min,AgWx,beryljct,423,01MAY2019:17:00:00,57.7,13.83,51.2,50.5,50.9,51.7,50.3,38,43,34,0.436,26.4,29.9,22.9,5.459,6.5,46,16,11.0,0.00343,0.00423,54.6,51.5,10,652,0,60.4,14.05,0.00,0.00
15min,AgWx,beryljct,423,01MAY2019:17:15:00,57.8,13.86,50.3,51.0,50.9,51.3,50.2,39,43,34,0.507,26.7,29.5,23.2,7.936,7.7,40,27,11.6,0.00330,0.00417,55.0,51.7,10,620,0,59.3,14.05,0.00,0.00
15min,AgWx,beryljct,423,01MAY2019:17:30:00,57.7,13.82,51.1,51.0,50.9,51.8,50.5,37,42,33,0.439,25.8,29.4,22.4,5.196,7.1,41,23,13.2,0.00309,0.00392,55.3,51.8,10,573,0,58.2,14.05,0.00,0.00
15min,AgWx,beryljct,423,01MAY2019:17:45:00,57.6,13.8,50.3,51.1,51.0,51.4,50.7,39,44,35,0.538,27.2,30.1,24.3,10.24,6.7,53,22,10.5,0.00283,0.00359,55.6,52.0,10,525,0,57.7,14.06,0.00,0.00
15min,AgWx,beryljct,423,01MAY2019:18:00:00,57.3,13.81,50.2,50.4,50.6,51.2,50.2,39,45,36,0.498,26.7,30.6,24.3,8.57,7.3,57,16,11.0,0.00259,0.00338,55.8,52.2,10,473,0,55.9,14.06,0.00,0.00
15min,AgWx,beryljct,423,01MAY2019:18:15:00,57.0,13.83,50.8,50.4,50.5,51.0,50.2,40,45,37,0.471,27.3,30.2,25.1,3.31,6.0,57,16,10.0,0.00227,0.00295,56.0,52.3,10,422,0,55.2,14.06,0.00,0.00
15min,AgWx,beryljct,423,01MAY2019:18:30:00,56.5,13.81,50.2,50.2,50.3,50.7,50.0,40,43,38,0.510,27.1,28.9,25.3,7.168,7.1,63,15,12.0,0.00207,0.00280,56.2,52.5,10,370,0,53.7,14.06,0.00,0.00
15min,AgWx,beryljct,423,01MAY2019:18:45:00,55.8,13.87,49.8,49.8,50.0,50.3,49.8,39,43,36,0.475,26.2,28.6,24.2,6.577,6.3,42,12,10.0,0.00178,0.00245,56.3,52.6,10,318,0,52.5,14.06,0.00,0.00
15min,AgWx,beryljct,423,01MAY2019:19:00:00,55.2,13.32,49.5,49.5,49.5,49.8,49.3,40,43,37,0.504,26.1,27.9,24.2,6.927,5.1,59,16,8.9,0.00142,0.00197,56.4,52.8,10,266,0,50.6,14.06,0.00,0.00
15min,AgWx,beryljct,423,01MAY2019:19:15:00,54.5,13.21,48.9,48.9,49.1,49.5,48.8,41,43,39,0.470,26.5,27.9,25.2,7.453,5.2,57,12,8.4,0.00115,0.00167,56.5,52.9,10,215,0,49.4,14.06,0.01,0.00
15min,AgWx,beryljct,423,01MAY2019:19:30:00,53.6,13.19,48.4,48.1,48.2,48.8,47.7,45,51,39,0.473,27.9,30.4,24.8,6.182,3.7,58,11,6.2,0.00043,0.00058,56.5,53.0,10,166,0,48.6,14.06,0.00,0.00
15min,AgWx,beryljct,423,01MAY2019:19:45:00,52.6,13.13,47.0,46.4,47.1,48.3,46.4,45,51,37,0.530,27.0,29.6,23.3,4.231,4.5,60,8.9,7.5,0.00037,0.00049,56.5,53.2,10,121,0,47.5,14.06,0.00,0.00
15min,AgWx,beryljct,423,01MAY2019:20:00:00,51.1,13.14,45.1,45.1,46.0,46.5,45.1,52,57,49,0.579,29.3,30.8,28.6,2.674,3.6,54,6.5,6.2,0.00021,0.00030,56.5,53.3,10,80,0,45.5,14.06,0.00,0.00
15min,AgWx,beryljct,423,01MAY2019:20:15:00,49.5,13.1,46.7,45.4,45.2,45.4,45.0,56,58,53,0.552,30.3,31.2,29.5,2.477,2.8,67,6.9,3.7,0.00006,0.00011,56.4,53.4,10,41,0,43.5,14.07,0.00,0.00
15min,AgWx,beryljct,423,01MAY2019:20:30:00,47.7,13.08,42.3,43.8,45.0,45.7,43.8,54,60,52,0.585,29.3,30.9,28.8,0,1.9,47,3.8,3.4,-0.00007,-0.00008,56.3,53.5,10,7,0,41.9,14.07,0.00,0.00
15min,AgWx,beryljct,423,01MAY2019:20:45:00,45.5,13.07,41.2,40.6,42.0,43.7,40.0,62,68,54,0.555,30.0,32.6,27.9,0.417,0.6,40,12,1.1,-0.00023,-0.00034,56.2,53.6,10,1,0,38.5,14.07,0.00,0.00
15min,AgWx,beryljct,423,01MAY2019:21:00:00,43.5,13.05,42.1,40.9,42.1,43.6,40.3,58,64,53,0.542,28.3,29.4,27.7,1.096,1.3,327,16,2.3,-0.00015,-0.00019,56.0,53.7,10,0,0,38.4,14.07,0.00,0.00
15min,AgWx,beryljct,423,01MAY2019:21:15:00,42.1,13.04,40.5,40.2,42.2,43.2,40.1,60,66,56,0.555,29.4,30.5,28.6,1.776,2.0,329,9.5,2.7,-0.00010,-0.00011,55.8,53.7,10,0,0,38.5,14.07,0.00,0.00
15min,AgWx,beryljct,423,01MAY2019:21:30:00,40.8,13.02,38.2,39.4,40.3,41.4,39.0,63,66,58,0.533,28.6,30.2,27.6,1.578,1.9,315,3.2,2.7,-0.00010,-0.00012,55.7,53.8,10,0,0,36.9,14.08,0.00,0.00
15min,AgWx,beryljct,423,01MAY2019:21:45:00,39.6,13.02,39.2,38.6,38.7,39.3,38.2,66,68,63,0.525,28.2,28.9,27.6,1.491,1.8,313,0.1,2.3,-0.00011,-0.00014,55.4,53.9,10,0,0,35.8,14.08,0.00,0.00
15min,AgWx,beryljct,423,01MAY2019:22:00:00,38.6,12.99,39.6,38.2,39.1,41.5,36.9,64,74,57,0.570,28.0,30.3,26.9,1.951,2.0,328,11,2.6,-0.00010,-0.00012,55.2,53.9,10,0,0,35.8,14.08,0.01,0.00
15min,AgWx,beryljct,423,01MAY2019:22:15:00,37.8,13,38.1,39.0,39.3,41.0,37.5,65,75,58,0.501,28.6,30.6,27.1,3.595,2.6,322,3.5,3.7,-0.00006,-0.00006,55.0,53.9,10,0,0,36.5,14.08,0.00,0.00
15min,AgWx,beryljct,423,01MAY2019:22:30:00,37.3,12.97,41.2,39.5,37.4,39.5,36.5,69,75,62,0.515,28.0,29.3,27.1,3.398,2.5,318,4.5,3.8,-0.00007,-0.00008,54.7,53.9,10,0,0,35.8,14.09,0.00,0.00
15min,AgWx,beryljct,423,01MAY2019:22:45:00,37.0,12.96,37.3,37.0,38.4,39.9,37.0,65,69,61,0.512,27.8,28.1,27.4,4.626,3.3,324,5.3,5.0,-0.00002,-0.00001,54.5,53.9,10,0,0,35.8,14.08,0.00,0.00
15min,AgWx,beryljct,423,01MAY2019:23:00:00,36.6,12.95,37.4,36.7,36.5,37.7,35.2,71,74,67,0.526,28.0,29.0,27.3,3.617,3.0,320,9.9,4.9,-0.00006,-0.00005,54.2,53.9,10,0,0,35.6,14.09,0.00,0.00
15min,AgWx,beryljct,423,01MAY2019:23:15:00,36.3,12.92,37.6,37.0,37.0,38.0,36.2,69,72,66,0.513,27.9,28.3,27.5,4.143,2.8,324,8.7,4.4,-0.00006,-0.00006,53.9,53.9,10,0,0,35.7,14.09,0.00,0.00
15min,AgWx,beryljct,423,01MAY2019:23:30:00,36.0,12.94,37.3,37.7,36.9,37.7,36.1,69,75,65,0.507,27.6,29.3,26.8,1.578,2.6,344,31,4.6,-0.00007,-0.00007,53.7,53.9,10,0,0,35.8,14.09,0.00,0.00
15min,AgWx,beryljct,423,01MAY2019:23:45:00,35.6,12.91,37.6,37.0,37.2,37.8,36.6,67,69,65,0.495,27.1,27.6,26.8,2.148,0.9,18,19,2.3,-0.00018,-0.00026,53.5,53.9,10,0,0,35.4,14.09,0.00,0.00
15min,AgWx,beryljct,423,02MAY2019:00:00:00,35.3,12.91,37.2,36.0,36.7,37.3,35.8,67,70,65,0.486,26.6,27.1,26.3,0,0.7,314,3.7,2.5,-0.00020,-0.00028,53.2,53.9,11,0,0,35.4,14.09,0.00,0.00
15min,AgWx,beryljct,423,02MAY2019:00:15:00,34.7,12.9,35.0,34.7,35.5,36.7,34.6,70,73,66,0.488,26.6,27.1,26.2,0,0.0,310,0.0,0.4,-0.00027,-0.00043,53.0,53.8,10,0,0,35.6,14.09,0.00,0.00
15min,AgWx,beryljct,423,02MAY2019:00:30:00,34.1,12.87,35.9,32.9,34.9,36.1,32.7,70,77,66,0.485,26.1,26.6,25.6,1.03,0.5,296,6.1,1.7,-0.00022,-0.00032,52.7,53.8,10,0,0,35.6,14.09,0.00,0.00
15min,AgWx,beryljct,423,02MAY2019:00:45:00,33.6,12.86,35.9,34.8,35.1,36.9,33.0,70,76,64,0.471,26.1,26.9,25.0,2.565,2.0,296,6.1,3.3,-0.00010,-0.00012,52.5,53.7,10,0,0,35.7,14.09,0.00,0.00
15min,AgWx,bigpiney,439,01MAY2019:00:00:00,33.0,12.64,27.8,27.4,27.2,27.4,27.0,88,90,85,0.428,24.0,24.6,23.3,10.11,9.7,340,14,13.8,0.00006,0.00007,36.5,34.1,53,0,1,0.0,1.28,0.00,0.00
15min,AgWx,bigpiney,439,01MAY2019:00:15:00,32.8,12.63,27.2,27.1,27.4,27.5,27.1,80,85,76,0.381,21.9,23.4,20.6,11.33,11.2,329,6.8,14.2,0.00010,0.00012,36.5,34.0,53,0,1,0.0,1.28,0.00,0.00
15min,AgWx,bigpiney,439,01MAY2019:00:30:00,32.4,12.61,27.3,26.7,26.5,27.1,26.3,77,78,74,0.363,20.1,20.6,19.4,15.85,11.2,313,6.7,16.2,0.00012,0.00013,36.4,34.1,53,0,1,0.0,1.28,0.00,0.00
15min,AgWx,bigpiney,439,01MAY2019:00:45:00,32.0,12.61,26.8,26.5,26.7,26.8,26.5,73,74,72,0.353,19.0,19.5,18.8,13.22,13.6,308,5.7,16.3,0.00014,0.00016,36.3,34.0,53,0,1,0.0,1.28,0.00,0.00
15min,AgWx,bigpiney,439,01MAY2019:01:00:00,31.6,12.6,27.0,26.6,26.6,26.7,26.4,72,73,70,0.346,18.7,18.9,18.2,13.07,14.6,304,6.0,18.0,0.00015,0.00017,36.2,34.0,53,0,1,0.0,1.28,0.00,0.00
15min,AgWx,bigpiney,439,01MAY2019:01:15:00,31.3,12.58,27.0,26.5,26.6,26.8,26.5,71,71,70,0.342,18.4,18.7,18.1,17.3,15.2,299,6.0,18.8,0.00016,0.00018,36.2,34.0,53,0,1,0.0,1.28,0.00,0.00
15min,AgWx,bigpiney,439,01MAY2019:01:30:00,31.0,12.57,25.5,25.5,26.1,26.6,25.5,70,71,69,0.333,17.7,18.1,17.5,9.51,13.8,297,5.0,18.7,0.00015,0.00017,36.1,34.0,53,0,1,0.0,1.28,0.00,0.00
15min,AgWx,bigpiney,439,01MAY2019:01:45:00,30.6,12.57,24.9,24.6,25.1,25.5,24.6,71,72,71,0.321,17.1,17.5,16.5,6.555,9.0,299,6.9,12.0,0.00013,0.00015,36.0,34.0,53,0,1,0.0,1.28,0.00,0.00
15min,AgWx,bigpiney,439,01MAY2019:02:00:00,30.1,12.56,23.3,22.9,23.6,24.6,22.9,72,74,71,0.308,16.0,16.7,15.6,3.814,4.9,284,13,7.6,0.00009,0.00012,36.0,34.0,53,0,1,0.0,1.28,0.00,0.00
15min,AgWx,bigpiney,439,01MAY2019:02:15:00,29.4,12.54,21.8,21.1,22.2,22.9,21.1,73,75,72,0.294,15.0,15.7,14.2,5.459,4.7,276,5.2,5.5,0.00008,0.00011,35.9,34.0,53,0,1,0.0,1.28,0.00,0.00
15min,AgWx,bigpiney,439,01MAY2019:02:30:00,28.6,12.53,21.8,21.8,21.6,22.1,21.1,74,76,72,0.289,14.6,15.0,14.2,5.502,5.9,278,6.4,7.3,0.00009,0.00011,35.9,33.9,53,0,1,0.0,1.28,0.00,0.00
15min,AgWx,bigpiney,439,01MAY2019:02:45:00,28.1,12.51,22.9,22.9,22.5,23.2,21.7,71,73,69,0.289,14.4,14.8,14.0,6.577,6.8,291,6.9,8.2,0.00011,0.00013,35.8,34.0,53,0,1,0.0,1.28,0.00,0.00
15min,AgWx,bigpiney,439,01MAY2019:03:00:00,27.6,12.51,19.9,19.5,21.3,22.9,19.5,71,73,69,0.266,13.5,14.2,12.3,6.862,6.4,283,5.6,7.3,0.00010,0.00012,35.7,34.0,53,0,1,0.0,1.28,0.00,0.00
15min,AgWx,bigpiney,439,01MAY2019:03:15:00,27.0,12.49,18.2,18.0,18.8,19.6,18.0,75,76,73,0.259,12.2,12.6,11.7,7.322,6.8,282,4.7,7.8,0.00008,0.00010,35.7,34.0,53,0,1,0.0,1.28,0.00,0.00
15min,AgWx,bigpiney,439,01MAY2019:03:30:00,26.3,12.46,21.3,20.3,20.0,20.6,18.0,73,77,71,0.269,12.7,13.1,11.7,8.77,8.0,287,4.9,9.8,0.00010,0.00011,35.6,34.0,53,0,1,0.0,1.28,0.00,0.00
15min,AgWx,bigpiney,439,01MAY2019:03:45:00,25.7,12.45,19.9,19.6,20.2,20.9,19.6,71,73,70,0.266,12.4,13.0,11.8,6.094,7.7,279,6.4,8.9,0.00010,0.00012,35.5,33.9,53,0,1,0.0,1.28,0.00,0.00
15min,AgWx,bigpiney,439,01MAY2019:04:00:00,25.2,12.44,20.1,19.7,19.5,20.1,19.0,73,74,71,0.264,12.3,12.8,11.9,6.905,7.1,272,4.2,8.3,0.00009,0.00011,35.5,33.9,53,0,1,0.0,1.28,0.00,0.00
15min,AgWx,bigpiney,439,01MAY2019:04:15:00,24.8,12.4,12.5,12.4,17.6,19.7,12.2,73,78,71,0.206,10.5,12.2,4.8,5.48,4.8,264,75,6.9,0.00007,0.00009,35.4,33.9,53,0,1,0.0,1.28,0.00,0.00
15min,AgWx,bigpiney,439,01MAY2019:04:30:00,24.0,12.39,15.1,14.4,13.8,14.7,12.2,81,83,77,0.234,8.9,10.2,6.5,3.069,2.5,120,30,5.8,0.00003,0.00005,35.4,33.9,53,0,1,0.0,1.28,0.00,0.00
15min,AgWx,bigpiney,439,01MAY2019:04:45:00,22.8,12.39,14.5,14.0,14.7,15.2,13.7,80,81,79,0.227,9.7,10.3,8.5,4.143,3.2,174,12,4.2,0.00004,0.00005,35.3,33.9,53,0,1,0.0,1.28,0.00,0.00
15min,AgWx,bigpiney,439,01MAY2019:05:00:00,21.7,12.37,11.1,11.9,14.3,16.4,11.9,81,83,78,0.210,9.4,12.1,7.0,5.459,4.2,194,12,7.0,0.00004,0.00006,35.3,33.9,53,0,1,0.0,1.28,0.00,0.00
15min,AgWx,bigpiney,439,01MAY2019:05:15:00,20.8,12.37,15.4,14.6,13.9,15.8,11.3,82,86,78,0.232,9.3,11.4,6.8,5.064,5.1,207,9.5,6.7,0.00004,0.00005,35.2,33.9,53,0,1,0.0,1.28,0.00,0.00
15min,AgWx,bigpiney,439,01MAY2019:05:30:00,20.2,12.37,12.2,13.8,16.0,18.4,13.8,76,81,70,0.216,9.9,12.8,6.4,4.472,4.4,183,18,5.7,0.00006,0.00007,35.2,33.8,54,0,1,0.0,1.28,0.00,0.00
15min,AgWx,bigpiney,439,01MAY2019:05:45:00,19.7,12.35,11.8,11.0,12.2,13.6,10.9,79,81,76,0.201,7.0,7.8,5.8,6.27,5.1,211,6.9,6.4,0.00005,0.00006,35.1,33.9,54,0,1,0.0,1.28,0.00,0.00
15min,AgWx,bigpiney,439,01MAY2019:06:00:00,19.0,12.35,13.1,12.2,13.1,14.7,11.0,81,84,79,0.212,8.4,10.3,6.2,4.647,5.4,218,5.0,6.4,0.00005,0.00006,35.1,33.8,54,0,1,0.0,1.28,0.00,0.00
15min,AgWx,bigpiney,439,01MAY2019:06:15:00,18.4,12.33,13.4,12.3,13.5,15.7,12.3,80,83,74,0.201,8.4,10.7,5.7,2.631,3.8,213,9.9,5.5,0.00004,0.00006,35.0,33.8,54,2,1,0.0,1.28,0.00,0.00
15min,AgWx,bigpiney,439,01MAY2019:06:30:00,17.9,12.34,10.0,9.6,11.7,12.8,9.6,84,86,77,0.201,7.8,9.4,6.0,2.959,1.2,342,51,4.8,-0.00011,-0.00010,35.0,33.7,54,8,1,0.0,1.28,0.00,0.00